Location: Aufkirchen
(47.9603°N, 11.3653°E)
Time: 08:05:10
(UTC+01:00)

Transit 4A - Pass Details

Date: 26 November 2020
Orbit: 864 x 981 km, 66.8° (Epoch: 17 January)

Event Time Altitude Azimuth Distance (km) Brightness Sun altitude
Rises 13:47:53 0° 313° (NW) 3,690 10.9 17.0°
Reaches altitude 10° 13:51:53 10° 337° (NNW) 2,741 10.0 16.7°
Maximum altitude 13:55:18 15° 9° (N) 2,414 9.6 16.4°
Drops below altitude 10° 13:58:41 10° 42° (NE) 2,726 9.8 16.2°
Sets 14:02:38 0° 65° (ENE) 3,656 10.5 15.8°
